Showing default

O3B FM12, 40350

Orbit data source: Space-Track

O3B FM12, 40350 is a payload satellite owned by O3B (JE) that was launched on Thu, 18 Dec 2014 UTC via a SOYUZ-ST-B launch vehicle from the French Guiana (FRGUI). Payloads include a variety of satellites, spacecraft, and rockets equipped with specific instruments for various scientific and technological missions. These include communications satellites like Starlink; space stations such as the ISS; scientific satellites like the Hubble; Earth observation satellites from companies like Planet Labs, Umbra, and HawkEye 360; GPS; miniature CubeSats for education and research; and military/defense satellites.

Loading next visibility...
O3B FM12 details
Identifier
40350, 2014-083C
Orbit
Active
Last TLE update3 days ago
Origin
Flag of JEO3B (JE / O3B)
ManufacturerThales Alenia
MissionOperational Commercial Communications
Bus & MotorPRISMA?, LS-400 AOCS?
Mass700 kg wet, ~500 kg dry
Launch date (UTC)
2014-12-18 (10 years ago)
Launch vehicle
SOYUZ-ST-B
Launch site
French Guiana (FRGUI)
Object type
Payload
Rocket body
Debris
Shape & HBRTrap Box + 2 Pan, 12 m
Radar Cross Section21.980 m², Large (>1 m²)

Expand to show TLE details & history

TLE from 3 days ago
0 O3B FM12
1 40350U 14083C   24358.89515759 -.00000016  00000-0  00000-0 0  9997
2 40350   0.0508 354.5101 0002811 284.3707  81.0881  5.00115725182899
Epoch: 2024-12-23T21:29Z
Definitive object data (Epoch: 2024-12-23T21:29:01.615Z)
Latitude0.00515°
Longitude-55.16782°
Altitude8,063.739 km
Speed5.255 km/s
True Right ascension23h 59m 59s
True Declination0° 00' 18"
Sunlit
Object was in daylight at TLE epoch
Visualization TLE readout
Latitude-0.0337°
Longitude-99.49063°
Altitude8,061.057 km
Speed5.256 km/s
Apparent Right ascension21h 26m 18s
Apparent Declination-12° 05' 54"
Sunlit
Object is in daylight
Visualization observer readout
Local Sidereal Time10:36:52
Azimuth34.128° NE
Elevation-58.122°
Doppler factor1
Orbital elements
Apogee altitude8,073.005 km
Perigee altitude8,064.883 km
Semi-major axis14,447.081 km
Eccentricity0.0002811
Inclination0.0508°
RAAN354.5101°
Arg. of periapsis284.3707°
True anomaly81.11992°
Mean anomaly81.0881°
Eccentric anomaly81.10401°
Mean motion1.24989 °/min
BSTARUnknown
Orbital period288.02 mins
Loading maneuver chart data...
Loading historical data...
Loading historical data...
Loading historical data...
Loading historical data...
Loading historical data...
Loading historical data...
Loading historical data...
Other satellites on launch #83 in the year 2014 (2014-12-18 UTC)

O3B FM12 Visibility forecast

Observer location: undefined°, undefined

Span
Click to sort rows by Start time (UTC) header in descending order
Start Az.
Max El. time (UTC)
Max El. Az.
Max El.
End time (UTC)
End Az.
79 mins2024-12-26 13:59:32.963Z232.238° WSW2024-12-26 14:39:32.963Z179.359° S24.334°2024-12-26 15:18:32.963Z127.967° SE
78 mins2024-12-26 20:00:32.963Z231.182° WSW2024-12-26 20:39:32.963Z179.294° S24.321°2024-12-26 21:18:32.963Z127.887° SE
78 mins2024-12-27 02:00:32.963Z231.171° WSW2024-12-27 02:39:32.963Z179.264° S24.403°2024-12-27 03:18:32.963Z127.861° SE
78 mins2024-12-27 08:00:32.963Z231.232° WSW2024-12-27 08:39:32.963Z179.328° S24.415°2024-12-27 09:18:32.963Z127.942° SE
|